[[{"header":{"parameterUnit":"m.s-1","parameterCategory":1,"la1":30.2991,"la2":30.254,"lo1":-89.0895,"lo2":-89.0444,"dy":0.0017,"dx":0.0017,"nx":28,"ny":28,"refTime":"2025-07-28T21:00:00:Z","depth":0,"parameterNumber":2,"parameterNumberName":"U-component_of_WINDS"},"data":[0,0,0,0,0,0,0,0,0,0,0,0,0,0,0,0,0,0,0,0,0,0,0,0,0,0,0,0,0,0,0,0,0,0,0,0,0,0,0,0,0,0,0,0,0,0,0,0,0,0,0,0,0,0,0,0,0,0,2.2286,2.2285,0,2.2226,2.2225,2.2224,2.2125,2.2124,2.2122,2.212,2.206,2.206,2.206,0,0,0,0,0,0,0,0,0,0,0,0,0,2.2316,2.2316,2.2286,2.2285,2.2284,2.2226,2.2225,2.2224,2.2126,2.2124,2.2121,2.2119,2.206,2.206,2.206,0,0,0,0,0,0,0,0,0,0,0,0,0,2.2284,2.2316,2.2286,2.2228,2.2222,2.2226,2.2225,2.2224,2.2126,2.2124,2.2121,2.2118,2.206,2.206,2.206,2.2116,0,0,2.2061,2.2061,0,0,0,0,0,0,0,0,2.2286,2.2283,2.2237,2.2232,2.2226,2.218,2.2213,2.2188,2.2127,2.2163,2.212,2.2117,2.2102,2.2099,2.2094,2.2113,2.2111,2.2061,2.2061,2.2061,2.2061,0,0,0,0,0,0,0,2.2288,2.2285,2.2262,2.2237,2.223,2.2205,2.2198,2.2208,2.2149,2.2159,2.2152,2.2146,2.2099,2.2094,2.2091,2.211,2.2061,2.2061,2.2061,2.2061,2.2173,2.2175,0,0,0,0,0,0,2.2299,2.2288,2.2264,2.226,2.225,2.2207,2.2199,2.2198,2.2148,2.2138,2.2149,2.2142,2.2095,2.2091,2.2089,2.2152,2.2061,2.2061,2.2061,2.217,2.2173,2.2176,0,0,0,0,0,0,2.23,2.2298,2.2266,2.2272,2.2266,2.2209,2.2209,2.2198,2.2193,2.214,2.2129,2.2155,2.2093,2.2089,2.211,2.2148,2.2061,2.2061,2.2166,2.2171,2.2175,2.2278,0,0,0,0,0,0,2.2301,2.2299,2.2319,2.2273,2.2266,2.2289,2.2211,2.2199,2.2193,2.2184,2.2143,2.2133,2.209,2.211,2.211,2.2147,2.2061,2.2163,2.2168,2.2173,2.2271,2.2285,2.2297,0,0,0,0,0,2.2303,2.2351,2.2321,2.2318,2.229,2.2291,2.2287,2.2236,2.2197,2.2217,2.2183,2.2135,2.2144,2.2113,2.2112,2.215,2.216,2.2167,2.2173,2.2265,2.2282,2.2297,0,0,0,0,0,0,2.2403,2.2344,2.231,2.2344,2.2323,2.2274,2.2298,2.2256,2.2246,2.2238,2.2175,2.2166,2.2196,2.2174,2.2142,2.2201,2.2144,2.2151,2.2215,2.2231,2.2244,2.2249,2.2061,0,0,0,0,0,2.2429,2.2434,2.2382,2.2417,2.2408,2.2356,2.2354,2.2316,2.2292,2.2283,2.225,2.2229,2.2227,2.2227,2.2223,2.2266,2.2257,2.2292,2.2305,2.2316,2.2323,2.2345,2.2361,2.2197,2.2197,2.2197,0,0,2.2484,2.2451,2.2459,2.2437,2.2416,2.2423,2.2349,2.2359,2.2364,2.2284,2.2303,2.2278,2.2251,2.2284,2.2297,2.2267,2.2366,2.2324,2.2334,2.2334,2.2354,2.2369,2.2383,2.2202,2.2201,2.22,0,0,2.2586,2.2562,2.2589,2.257,2.2539,2.2504,2.2511,2.2468,2.2448,2.2466,2.2406,2.2411,2.2409,2.2392,2.2383,2.2479,2.2434,2.2479,2.2549,2.2572,2.2584,2.2596,2.2631,2.2644,2.2486,2.2486,2.2486,0,2.2658,2.2665,2.2609,2.2623,2.2616,2.2543,2.2571,2.2555,2.2525,2.2522,2.2488,2.2484,2.246,2.2489,2.2512,2.2507,2.2513,2.2484,2.2587,2.2598,2.2607,2.264,2.2654,2.2492,2.2491,2.249,2.249,0,2.2755,2.2762,2.2787,2.276,2.2755,2.2776,2.2723,2.2725,2.2688,2.2656,2.2675,2.2643,2.2631,2.2635,2.2598,2.2658,2.2641,2.2598,2.254,2.263,2.266,2.2672,2.25,2.2498,2.2496,2.2495,0,0,2.2921,2.2861,2.2872,2.2859,2.282,2.2824,2.2841,2.2829,2.2833,2.2814,2.2828,2.2828,2.2788,2.2778,2.2739,2.2759,2.2838,2.2713,2.2712,2.2739,2.2904,2.2937,2.2953,2.2808,2.281,2.2812,2.2906,0,2.3016,2.3043,2.2993,2.3032,2.3037,2.2969,2.2984,2.2962,2.2933,2.2933,2.29,2.2902,2.2849,2.2842,2.2859,2.2825,2.2871,2.2817,2.2821,2.2822,2.2832,2.2968,2.3003,2.3095,2.2918,2.292,2.2921,0,2.3132,2.3119,2.3159,2.3118,2.3118,2.3133,2.3118,2.3119,2.3093,2.307,2.3059,2.3013,2.3028,2.2971,2.2991,2.2956,2.2955,2.2939,2.2941,2.294,2.2878,2.2973,2.3122,2.3137,2.2939,2.2937,2.2936,0,2.325,2.3243,2.3265,2.3256,2.3208,2.3221,2.3202,2.3172,2.3169,2.3155,2.3152,2.3141,2.3136,2.3129,2.3081,2.3044,2.3108,2.3046,2.309,2.3091,2.3108,2.3108,2.326,2.3105,2.3104,2.3104,2.3104,0,2.3363,2.339,2.3318,2.3333,2.3361,2.3303,2.3333,2.3307,2.3282,2.329,2.3229,2.3239,2.3174,2.3177,2.314,2.3163,2.316,2.3143,2.3133,2.3149,2.3152,2.3148,2.3142,2.3108,2.3107,2.3106,2.3106,0,2.3501,2.3453,2.3474,2.3427,2.3416,2.3439,2.3399,2.3411,2.3377,2.3388,2.3388,2.3335,2.3335,2.3286,2.3276,2.3251,2.329,2.3268,2.33,2.3293,2.334,2.3337,2.3497,2.3516,2.3347,2.3349,2.335,0,2.3577,2.3596,2.3551,2.3552,2.3536,2.3538,2.3534,2.3477,2.3475,2.3447,2.3462,2.3457,2.345,2.3453,2.3414,2.3406,2.3384,2.344,2.3382,2.3398,2.3386,2.3386,2.3388,2.3453,2.3455,2.3457,2.3459,0,2.3717,2.3692,2.3688,2.3676,2.3673,2.366,2.3644,2.3649,2.3586,2.3587,2.3586,2.3581,2.357,2.3566,2.3551,2.3531,2.3485,2.3477,2.3487,2.3505,2.3523,2.3515,2.3335,2.3474,2.3472,2.3471,2.347,2.347,2.3827,2.3841,2.3812,2.3809,2.3791,2.3778,2.3786,2.3754,2.3752,2.3739,2.3705,2.371,2.3683,2.3658,2.3642,2.3645,2.3617,2.3631,2.3635,2.364,2.3649,2.3521,2.3642,2.3641,2.3641,2.3641,2.364,0,2.3965,2.3943,2.3941,2.392,2.3919,2.3874,2.3854,2.3856,2.3861,2.384,2.3834,2.3833,2.3829,2.3789,2.3781,2.3791,2.377,2.3791,2.379,2.3787,2.3674,2.3667,2.3808,2.3808,2.3808,2.3808,2.3808,2.3808,2.4037,2.4059,2.4032,2.4044,2.4021,2.4025,2.4018,2.4005,2.3988,2.399,2.3986,2.396,2.3932,2.392,2.3915,2.3903,2.3904,2.3932,2.3914,2.381,2.3794,2.3779,2.3772,2.3932,2.3933,2.4026,2.4027,2.4027]},{"header":{"parameterUnit":"m.s-1","parameterCategory":1,"la1":30.2991,"la2":30.254,"lo1":-89.0895,"lo2":-89.0444,"dy":0.0017,"dx":0.0017,"nx":28,"ny":28,"refTime":"2025-07-28T21:00:00:Z","depth":0,"parameterNumber":3,"parameterNumberName":"V-component_of_WINDS"},"data":[0,0,0,0,0,0,0,0,0,0,0,0,0,0,0,0,0,0,0,0,0,0,0,0,0,0,0,0,0,0,0,0,0,0,0,0,0,0,0,0,0,0,0,0,0,0,0,0,0,0,0,0,0,0,0,0,0,0,-2.3339,-2.334,0,-2.3414,-2.3415,-2.3415,-2.3411,-2.341,-2.3409,-2.3408,-2.3482,-2.3485,-2.3488,0,0,0,0,0,0,0,0,0,0,0,0,0,-2.3192,-2.3195,-2.3339,-2.334,-2.3341,-2.3414,-2.3415,-2.3416,-2.3411,-2.341,-2.3409,-2.3408,-2.3481,-2.3485,-2.3488,0,0,0,0,0,0,0,0,0,0,0,0,0,-2.326,-2.3196,-2.3339,-2.3348,-2.3349,-2.3413,-2.3415,-2.3416,-2.3412,-2.341,-2.3408,-2.3407,-2.348,-2.3484,-2.3489,-2.3548,0,0,-2.3502,-2.3504,0,0,0,0,0,0,0,0,-2.3257,-2.3266,-2.3345,-2.3347,-2.3349,-2.3402,-2.339,-2.346,-2.3412,-2.3388,-2.3408,-2.3406,-2.3456,-2.3463,-2.348,-2.3552,-2.3555,-2.3503,-2.3505,-2.3507,-2.3508,0,0,0,0,0,0,0,-2.3252,-2.3263,-2.3369,-2.3347,-2.3349,-2.3348,-2.3356,-2.3403,-2.343,-2.339,-2.339,-2.3399,-2.3457,-2.3476,-2.3482,-2.3556,-2.3502,-2.3506,-2.3509,-2.3511,-2.3683,-2.3685,0,0,0,0,0,0,-2.3245,-2.3259,-2.3366,-2.3371,-2.3298,-2.3352,-2.336,-2.3386,-2.343,-2.3435,-2.34,-2.3398,-2.3469,-2.3477,-2.3484,-2.3559,-2.3507,-2.3511,-2.3514,-2.3681,-2.3684,-2.3686,0,0,0,0,0,0,-2.3242,-2.3255,-2.3363,-2.3315,-2.3329,-2.3356,-2.3385,-2.3389,-2.3407,-2.3437,-2.3442,-2.3414,-2.3468,-2.3478,-2.3533,-2.3561,-2.3513,-2.3517,-2.3679,-2.3682,-2.3685,-2.3707,0,0,0,0,0,0,-2.3238,-2.3254,-2.3277,-2.3315,-2.3331,-2.3411,-2.3387,-2.3391,-2.3415,-2.3414,-2.3452,-2.3457,-2.3468,-2.3527,-2.3538,-2.3567,-2.3521,-2.3677,-2.368,-2.3684,-2.3704,-2.371,-2.3716,0,0,0,0,0,-2.3233,-2.3279,-2.3278,-2.3291,-2.336,-2.3412,-2.3421,-2.3434,-2.3418,-2.3441,-2.3461,-2.3456,-2.3557,-2.3532,-2.3545,-2.3575,-2.3675,-2.3679,-2.3683,-2.3701,-2.3709,-2.3716,0,0,0,0,0,0,-2.3242,-2.3284,-2.3283,-2.3344,-2.3375,-2.3412,-2.3441,-2.3441,-2.3476,-2.3473,-2.3486,-2.3495,-2.3551,-2.3568,-2.3541,-2.3637,-2.3614,-2.3621,-2.3623,-2.3631,-2.3637,-2.3631,-2.3525,0,0,0,0,0,-2.3251,-2.329,-2.3325,-2.3375,-2.339,-2.3413,-2.3436,-2.3444,-2.3476,-2.3489,-2.3512,-2.3543,-2.3582,-2.3607,-2.3645,-2.3707,-2.3716,-2.3734,-2.374,-2.3745,-2.3751,-2.3787,-2.3796,-2.37,-2.37,-2.37,0,0,-2.3269,-2.3298,-2.3321,-2.3377,-2.3402,-2.3443,-2.3424,-2.3467,-2.3498,-2.3495,-2.3549,-2.3568,-2.3603,-2.3663,-2.369,-2.3679,-2.378,-2.375,-2.3754,-2.3757,-2.3792,-2.3801,-2.381,-2.3703,-2.3702,-2.3702,0,0,-2.3325,-2.335,-2.3395,-2.3421,-2.3459,-2.3475,-2.3486,-2.3524,-2.3537,-2.3591,-2.3591,-2.3627,-2.3693,-2.372,-2.3741,-2.381,-2.3807,-2.3822,-2.3852,-2.3888,-2.3895,-2.3902,-2.3928,-2.3937,-2.3827,-2.3827,-2.3827,0,-2.3343,-2.3404,-2.3418,-2.3462,-2.3487,-2.3488,-2.3535,-2.3559,-2.3607,-2.3625,-2.3612,-2.3698,-2.3721,-2.3788,-2.3805,-2.3823,-2.3836,-2.3817,-2.3893,-2.39,-2.3907,-2.3931,-2.3941,-2.3829,-2.3829,-2.3829,-2.3829,0,-2.3426,-2.3468,-2.35,-2.3549,-2.3578,-2.3622,-2.3643,-2.3671,-2.3676,-2.3693,-2.375,-2.3779,-2.3823,-2.384,-2.3844,-2.3908,-2.39,-2.389,-2.3867,-2.3917,-2.3941,-2.395,-2.3831,-2.3831,-2.383,-2.383,0,0,-2.3486,-2.3544,-2.3556,-2.3579,-2.3623,-2.3656,-2.3702,-2.3746,-2.377,-2.3804,-2.3844,-2.3901,-2.3894,-2.3918,-2.3926,-2.3957,-2.4012,-2.3944,-2.3945,-2.3956,-2.4085,-2.4093,-2.4103,-2.401,-2.4012,-2.4014,-2.4083,0,-2.3547,-2.3629,-2.3643,-2.3715,-2.3755,-2.3758,-2.3798,-2.383,-2.3848,-2.3885,-2.3904,-2.3945,-2.3931,-2.3946,-2.3977,-2.3998,-2.4038,-2.3994,-2.4047,-2.4049,-2.4039,-2.4115,-2.4123,-2.4187,-2.4092,-2.4093,-2.4094,0,-2.3628,-2.3666,-2.3742,-2.3783,-2.38,-2.3836,-2.3879,-2.3915,-2.3951,-2.3962,-2.3992,-2.3997,-2.4045,-2.402,-2.4088,-2.4058,-2.4081,-2.4095,-2.4097,-2.4103,-2.4075,-2.4124,-2.4207,-2.4217,-2.4109,-2.4108,-2.4107,0,-2.3666,-2.3736,-2.3791,-2.3811,-2.3859,-2.3885,-2.3906,-2.3941,-2.3968,-2.4006,-2.4024,-2.4066,-2.409,-2.4123,-2.414,-2.412,-2.4207,-2.4183,-2.4218,-2.4217,-2.4235,-2.4234,-2.4324,-2.4249,-2.4249,-2.4249,-2.4249,0,-2.3732,-2.3778,-2.3809,-2.3843,-2.3896,-2.3913,-2.3965,-2.3986,-2.4017,-2.4056,-2.4061,-2.4097,-2.4117,-2.4156,-2.4169,-2.4224,-2.4234,-2.4245,-2.4248,-2.4244,-2.4243,-2.426,-2.4256,-2.4252,-2.4251,-2.4251,-2.425,0,-2.3783,-2.3806,-2.3866,-2.3908,-2.392,-2.3957,-2.3994,-2.4027,-2.4046,-2.4094,-2.4107,-2.4136,-2.4182,-2.4203,-2.4259,-2.4269,-2.4331,-2.4331,-2.4319,-2.4321,-2.4354,-2.4351,-2.4458,-2.4474,-2.4388,-2.4389,-2.439,0,-2.3824,-2.386,-2.3907,-2.3934,-2.3956,-2.3999,-2.4027,-2.4046,-2.4075,-2.4121,-2.4149,-2.4196,-2.4234,-2.4309,-2.4335,-2.4379,-2.438,-2.4415,-2.4386,-2.4383,-2.4382,-2.438,-2.4384,-2.442,-2.442,-2.4421,-2.4422,0,-2.3894,-2.3904,-2.3945,-2.399,-2.4024,-2.406,-2.4096,-2.4117,-2.4142,-2.4174,-2.4223,-2.4253,-2.4313,-2.436,-2.4406,-2.4428,-2.443,-2.4431,-2.4441,-2.4438,-2.4431,-2.4436,-2.4334,-2.4428,-2.4427,-2.4427,-2.4426,-2.4426,-2.3942,-2.3975,-2.4014,-2.406,-2.4089,-2.4123,-2.4157,-2.4181,-2.4222,-2.4273,-2.4281,-2.4333,-2.4371,-2.4434,-2.4458,-2.4499,-2.4491,-2.4505,-2.4509,-2.4513,-2.4516,-2.4424,-2.4508,-2.4507,-2.4507,-2.4507,-2.4507,0,-2.4014,-2.404,-2.4082,-2.4132,-2.4169,-2.4168,-2.4208,-2.4239,-2.4285,-2.432,-2.4359,-2.4416,-2.4462,-2.4493,-2.454,-2.4567,-2.4569,-2.4579,-2.4577,-2.4583,-2.452,-2.4507,-2.4577,-2.4577,-2.4577,-2.4577,-2.4577,-2.4577,-2.4055,-2.4112,-2.4127,-2.4199,-2.4224,-2.4276,-2.4299,-2.4331,-2.436,-2.4423,-2.4463,-2.4483,-2.4517,-2.4567,-2.461,-2.4618,-2.4635,-2.4646,-2.4653,-2.4594,-2.4587,-2.458,-2.4568,-2.4649,-2.4649,-2.4713,-2.4714,-2.4714]}]]